Other Surface Observations
Issued by NWS

Home | Current Version | Previous Version | Text Only | Print | Product List | Glossary On
Versions: 1 2 3 4 5 6 7 8 9 10 11 12 13 14 15 16 17 18 19 20 21 22 23 24 25 26 27 28 29 30 31 32 33 34 35 36 37 38 39 40 41 42 43 44 45 46 47 48 49 50
472
SXUS52 KTAE 140518
OSOTAE
OSOTAE
North Florida/South Alabama/Southwest Georgia Weather Roundup
National Weather Service Tallahassee Florida
1200 AM EST THU DEC 14 2017

Note: "fair" indicates few or no clouds below 12,000 feet with no
significant weather and/or obstructions to visibility.

!FLZ017-115-028-034-025-140600
...North Florida...

CITY           SKY/WX    TMP DP  RH WIND       PRES   REMARKS
TALLAHASSEE    PTCLDY    39  35  86 CALM      29.98F
APALACHICOLA   CLEAR     42  41  96 CALM      29.99F
PERRY          CLOUDY    39  37  92 CALM      30.00F
CROSS CITY     CLOUDY    37  35  94 CALM      30.07S
JACKSONVILLE   MOCLDY    46  34  62 SW6       30.00S WCI  43
$$

!FLZ112-006-005-002-011-140600
...Florida Panhandle...

CITY           SKY/WX    TMP DP  RH WIND       PRES   REMARKS
MARIANNA       PTCLDY    43  37  79 CALM      29.97F
BONIFAY        NOT AVBL
PANAMA CITY NW FAIR      41  38  89 NW3       29.97F
TYNDALL AFB    PTCLDY    62  50  65 W13       29.98S
TYND DRONE APT FAIR      62  51  68 W8        29.98S
DE FUNIAK SPR  FAIR      48  39  72 W7        29.99S WCI  44
EGLIN AFB      PTCLDY    45  40  81 NW6       29.98S WCI  42
DESTIN         CLOUDY    57  45  64 NW5       29.99S
HURLBURT       PTCLDY    50  42  74 NW5       29.98S
CRESTVIEW      CLOUDY    44  37  76 W5        30.00S WCI  42
PENSACOLA      MOCLDY    50  40  68 W5        29.99F
$$

!ALZ063-066-140600
...South Alabama...

CITY           SKY/WX    TMP DP  RH WIND       PRES   REMARKS
DOTHAN         CLOUDY    44  35  70 SW8       29.99F WCI  39
OZARK CAIRNS   CLOUDY    42  33  70 SW6       29.96F WCI  39
FT RUCKER HELI CLOUDY    47  36  65 SW8       29.95S WCI  43
RUCKER HELI 3    N/A     46  35  67 W10       29.94F WCI  41
RUCKER HELI 2  FAIR      43  35  73 SW5       29.95F WCI  40
FLORALA APT    CLOUDY    45  36  70 SW6       29.99F WCI  42
ANDALUSIA      CLOUDY    47  33  58 SW6       29.96F WCI  44
TROY           CLOUDY    40  32  73 SW3       29.96S
EUFALA         FAIR      44  31  60 CALM      29.94S
MOBILE         PTCLDY    49  40  71 SW8       29.99F
$$

!GAZ120>161-140600
...Southwest and South Central Georgia...

CITY           SKY/WX    TMP DP  RH WIND       PRES   REMARKS
THOMASVILLE    FAIR      43  36  75 CALM      29.98F
BAINBRIDGE     CLOUDY    43  41  93 CALM      29.98S
MOODY AFB      CLOUDY    46  34  64 SW9       29.96F WCI  41
VALDOSTA       CLOUDY    44  35  70 SW5       29.98F WCI  42
MOULTRIE       CLOUDY    43  36  75 SW5       29.97F WCI  40
BLAKELY        NOT AVBL
ALBANY         CLOUDY    43  32  65 SW3       29.98F
TIFTON         FAIR      43  32  64 SW7       29.96S WCI  39
FITZGERALD     FAIR      43  31  62 SW6       29.97F WCI  40
CORDELE        FAIR      48  31  50 W8        29.95S WCI  45
AMERICUS       FAIR      41  23  48 SW6       29.96R WCI  37
HOMERVILLE     FAIR      41  32  70 SW3       29.98S
$$

!GMZ750-755-770-775-140600
...Coastal and Buoy Obs...

STATION/POSITION TIME  TEMP    WIND        PRES    VSBY  WAVE
                       AIR SEA DIR/SP/G                  HT/PER
                 (UTC) (F)     (DEG/KT/KT) (MB)    (MI)  (FT/S)
KEATON BEACH     0500   58     250/ 10/ 11 1015.4F
CEDAR KEY        0500   58     250/  8/ 10 1016.9F
C TOWER          0500   64     270/ 18/ 20 1016.0F
APALACHICOLA BUO NOT AVBL
PANAMA CITY BUOY 0450   67 74  260/ 17/ 21 1015.5F         3/ 4
MOBILE BUOY      0500   63 70  260/ 14/ 17 1016.1
ORANGE BCH AL BU NOT AVBL
$$




USA.gov is the U.S. government's official web portal to all federal, state and local government web resources and services.